PDT,Max TemperatureF,Mean TemperatureF,Min TemperatureF,Max Dew PointF,MeanDew PointF,Min DewpointF,Max Humidity, Mean Humidity, Min Humidity, Max Sea Level PressureIn, Mean Sea Level PressureIn, Min Sea Level PressureIn, Max VisibilityMiles, Mean VisibilityMiles, Min VisibilityMiles, Max Wind SpeedMPH, Mean Wind SpeedMPH, Max Gust SpeedMPH,PrecipitationIn, CloudCover, Events, WindDirDegrees
2011-10-1,61,56,53,52,49,44,94,80,60,29.97,29.92,29.87,10,9,5,10,3,,0.00,7,,165
2011-10-2,64,58,51,55,50,47,93,80,60,29.97,29.91,29.83,10,10,5,7,1,,0.14,7,Rain,166
2011-10-3,63,58,53,55,52,47,96,83,60,29.85,29.82,29.79,10,10,10,9,4,21,0.09,7,Rain,155
2011-10-4,63,56,50,52,48,41,100,79,45,29.78,29.64,29.45,10,10,9,12,6,21,0.02,6,Rain,139
2011-10-5,55,53,51,52,49,46,100,86,69,29.75,29.57,29.43,10,10,9,8,2,,0.10,7,Rain,165
2011-10-6,57,54,50,52,49,48,96,86,70,30.06,29.93,29.76,10,8,2,7,3,,0.19,8,Rain,149
2011-10-7,60,56,53,52,51,49,94,85,72,30.22,30.14,30.06,10,10,9,7,4,,0.05,8,Rain,169
2011-10-8,64,55,46,52,49,45,97,81,56,30.23,30.17,30.09,10,10,4,8,2,,0.01,5,Rain,165
2011-10-9,61,56,51,53,50,44,97,83,62,30.10,30.02,29.82,10,8,1,7,4,,0.06,7,Rain,111
2011-10-10,60,56,51,54,52,48,100,89,75,29.79,29.61,29.53,10,9,3,16,4,30,0.18,7,Rain,152
2011-10-11,60,56,53,54,51,48,94,86,75,30.09,29.82,29.57,10,9,6,17,11,23,0.57,7,Rain,175
2011-10-12,61,54,48,49,47,42,90,78,57,30.25,30.20,30.11,10,10,8,13,8,18,0.01,5,Rain,160
2011-10-13,59,52,46,47,45,43,97,81,58,30.25,30.17,30.05,10,10,5,9,2,,0.00,3,,332
2011-10-14,57,52,50,48,46,44,89,80,69,30.04,30.01,29.98,10,10,10,7,4,,0.01,4,,334
2011-10-15,55,50,44,46,44,42,93,83,67,30.13,30.08,30.03,10,10,10,7,2,,0.00,4,,350
2011-10-16,52,48,43,45,44,42,100,85,76,30.34,30.20,30.06,10,9,6,4,2,,0.00,6,,98
2011-10-17,59,50,42,45,44,41,97,79,58,30.43,30.38,30.31,10,9,6,9,3,,0.00,3,,4
2011-10-18,64,54,46,47,46,44,93,78,50,30.32,30.14,29.94,10,10,8,9,3,,0.00,1,,329
2011-10-19,61,54,48,52,49,47,100,83,72,30.09,30.00,29.92,10,10,7,12,4,22,0.00,6,Rain,161
2011-10-20,57,54,48,52,49,46,97,83,72,30.13,30.10,30.08,10,10,7,10,6,,0.00,7,,144
2011-10-21,60,54,50,54,52,49,100,92,78,30.23,30.17,30.12,10,7,2,15,6,29,0.03,7,Rain,162
2011-10-22,62,58,53,58,55,53,100,92,82,30.22,30.15,30.08,10,8,2,14,7,24,0.28,7,Rain,174
2011-10-23,59,54,51,54,49,44,94,83,67,30.21,30.18,30.12,10,10,10,6,2,,0.00,6,,138
2011-10-24,57,50,45,46,44,40,93,81,57,30.39,30.28,30.16,10,10,10,7,3,,0.02,5,Rain,124
2011-10-25,55,46,37,43,41,37,100,85,55,30.48,30.44,30.40,10,8,0,6,2,,0.00,3,Fog,60
2011-10-26,51,44,36,46,39,35,97,82,57,30.41,30.29,30.21,10,10,4,12,4,23,0.01,5,Rain,153
2011-10-27,55,48,42,45,41,37,100,85,53,30.33,30.27,30.08,10,8,0,7,1,,0.00,4,Fog,356
2011-10-28,54,48,44,49,45,40,94,86,61,30.10,29.97,29.88,10,8,2,18,4,26,0.38,7,Rain,169
2011-10-29,55,50,44,47,45,40,100,82,55,30.32,30.24,30.13,10,10,7,7,3,,0.00,4,,158
2011-10-30,60,51,42,56,48,40,100,91,74,30.21,30.08,30.02,10,7,2,16,7,22,0.14,7,Rain,142
2011-10-31,54,48,42,44,41,38,96,78,59,30.47,30.36,30.23,10,10,10,8,4,,0.00,5,,121